Vernal, UT

1:02 PM MDT on June 22, 2017 (GMT -0600)
Vernal

Weather History for KVEL - November, 2011

Change the Weather History Date:

Thursday, November 17, 2011

  Actual Average Record
Temperature  
Mean Temperature 34 °F 33 °F  
Max Temperature 46 °F 44 °F 61 °F (1967)
Min Temperature 21 °F 23 °F 2 °F (1958)
Degree Days  
Heating Degree Days 32 32  
Month to date heating degree days 466  
Since 1 July heating degree days 1170  
Cooling Degree Days 0 0  
Month to date cooling degree days 0  
Year to date cooling degree days 511  
Moisture  
Dew Point 13 °F    
Average Humidity 50    
Maximum Humidity 68    
Minimum Humidity 23    
Precipitation  
Precipitation 0.00 in 0.02 in 1.40 in (1930)
Month to date precipitation 0.39  
Year to date precipitation 8.47  
Sea Level Pressure  
Sea Level Pressure 30.11 in    
Wind  
Wind Speed 4 mph (West)    
Max Wind Speed 7 mph    
Max Gust Speed -    
Visibility 10 miles    
Events      
T = Trace of Precipitation, MM = Missing Value Source: NWS Daily Summary

Daily Weather History Graph

Daily Weather History Graph

Search for Another Location

Airport or City:

Trip Planner

Search our weather history database for the weather conditions in past years. The results will help you decide how hot, cold, wet, or windy it might be!

Date:

Astronomy

Nov. 17, 2011 Rise Set
Actual Time 7:06 AM MST 4:59 PM MST
Civil Twilight 6:36 AM MST 5:28 PM MST
Nautical Twilight 6:03 AM MST 6:01 PM MST
Astronomical Twilight 5:31 AM MST 6:33 PM MST
Moon 11:23 PM MST (11/17) 12:16 PM MST (11/17)
Length of Visible Light 10h 51m
Length of Day
9h 52m
Waning Gibbous, 59% of the Moon is Illuminated
Nov 17
Waning Gibbous
Nov 18
Last Quarter
Nov 24
New
Dec 2
First Quarter
Dec 10
Full

Hourly Weather History & Observations

Time (MST) Temp. Windchill Dew Point Humidity Pressure Visibility Wind Dir Wind Speed Gust Speed Precip Events Conditions
12:53 AM 23.0 °F 17.0 °F 12.0 °F 63% 30.30 in 10.0 mi West 4.6 mph - N/A   Clear
1:53 AM 24.1 °F - 12.0 °F 60% 30.28 in 10.0 mi Calm Calm - N/A   Clear
2:53 AM 21.9 °F 15.7 °F 12.0 °F 66% 30.29 in 10.0 mi West 4.6 mph - N/A   Clear
3:53 AM 21.0 °F 14.6 °F 12.0 °F 68% 30.29 in 10.0 mi WNW 4.6 mph - N/A   Clear
4:53 AM 21.9 °F 14.5 °F 10.9 °F 63% 30.29 in 10.0 mi West 5.8 mph - N/A   Clear
5:53 AM 21.0 °F 16.2 °F 10.9 °F 65% 30.32 in 10.0 mi West 3.5 mph - N/A   Clear
6:53 AM 21.9 °F 17.2 °F 10.9 °F 63% 30.30 in 10.0 mi West 3.5 mph - N/A   Clear
8:53 AM 27.0 °F - 15.1 °F 61% 30.27 in 10.0 mi Calm Calm - N/A   Clear
11:53 AM 39.0 °F 34.0 °F 14.0 °F 36% 30.17 in 10.0 mi ENE 6.9 mph - N/A   Clear
12:53 PM 42.1 °F 40.2 °F 12.0 °F 29% 30.11 in 10.0 mi Variable 3.5 mph - N/A   Clear
1:53 PM 46.0 °F - 12.0 °F 25% 30.05 in 10.0 mi Calm Calm - N/A   Clear
2:53 PM 46.0 °F - 10.9 °F 24% 30.03 in 10.0 mi Calm Calm - N/A   Clear
3:53 PM 46.9 °F - 10.9 °F 23% 30.00 in 10.0 mi West 4.6 mph - N/A   Mostly Cloudy
4:53 PM 44.1 °F 41.5 °F 12.9 °F 28% 29.98 in 10.0 mi West 4.6 mph - N/A   Scattered Clouds
5:53 PM 39.0 °F 35.7 °F 15.1 °F 38% 30.00 in 10.0 mi West 4.6 mph - N/A   Mostly Cloudy
6:53 PM 30.9 °F - 15.1 °F 52% 30.01 in 10.0 mi Calm Calm - N/A   Mostly Cloudy
7:53 PM 30.0 °F 23.2 °F 15.1 °F 54% 29.98 in 10.0 mi West 6.9 mph - N/A   Clear
8:53 PM 30.0 °F 24.1 °F 15.1 °F 54% 29.98 in 10.0 mi West 5.8 mph - N/A   Clear
9:53 PM 30.0 °F 26.5 °F 16.0 °F 56% 29.94 in 10.0 mi WNW 3.5 mph - N/A   Clear
10:53 PM 27.0 °F 21.6 °F 15.1 °F 61% 29.92 in 10.0 mi West 4.6 mph - N/A   Clear
11:53 PM 27.0 °F 21.6 °F 15.1 °F 61% 29.89 in 10.0 mi NW 4.6 mph - N/A   Clear